"Pseudo-MPEC" for p0003r

Created 2025 Apr 30 13:31:07 UT using Find_Orb

Click here for an explanation of pseudo-MPECs

 
 Astrometry: 
     p0003r * C2025 04 15.54431615 18 21.581+34 14 52.72   ~4FN2 20.57iXNEOCPF51
     p0003r   C2025 04 15.55463015 18 21.727+34 14 51.83   ~4FN2 20.34iXNEOCPF51
     p0003r   C2025 04 15.56475615 18 21.847+34 14 52.05   ~4FN2 20.6 iXNEOCPF51
     p0003r   C2025 04 15.57468215 18 21.916+34 14 53.35   ~4FN2 20.58iXNEOCPF51

Station data:
(F51) Pan-STARRS 1, Haleakala  (N20.707234 W156.255910)  US/Hawaii.
   Observers J. Bulger, T. Lowe, A. Schultz, M. Willman. Measurers K.
   Chambers, S. Chastel, T. de Boer, L. Denneau, J. Fairlamb, H. Flewelling,
   M. Huber, C.-C. Lin, E. Magnier, Y. Ramanjooloo, R. Wainscoat, R. Weryk.
   1.8-m Ritchey-Chrétien + CCD.

Orbital elements:  p0003r
   Perihelion 2025 Mar 6.00025 +/- 27 TT =  0:00:21 (JD 2460740.50025)
Epoch 2025 Apr 16.0 TT = JDT 2460781.5   Earth MOID: 0.2526      AutoNEOCP
M  10.32872980 +/- 9                (J2000 ecliptic)
n   0.25192177 +/- 0.14             Peri.   27.11459 +/- 40
a   2.48289819 +/- 0.918            Node   146.08633 +/- 18
e   0.5078490 +/- 0.139             Incl.   15.77025 +/- 4.1
P   3.91236                H 20.74  G  0.15   U 11.4  SR
q 1.22196073 +/- 0.104    Q 3.74383564 +/- 1.16
From 4 observations 2025 Apr. 15 (43.7 min); mean residual 0".44
Residuals in arcseconds: 
250415 F51  .25-  .57+    250415 F51  .29+  .57-    
250415 F51  .18+  .58-    250415 F51  .23-  .58+    

Ephemerides (geocentric):
Date (UTC) HH   RA             Dec           delta  r     elong  mag " sig PA
---- --------  ------------   ------------  ------ ------ -----  --- --------
2025 04 30 14  15 18 53.988   +32 53 21.12  .47124 1.3633 130.9 21.2  922  54
2025 04 30 15  15 18 53.540   +32 52 53.05  .47143 1.3635 130.9 21.2  925  54
2025 04 30 16  15 18 53.090   +32 52 24.92  .47163 1.3637 130.9 21.2  929  53
2025 04 30 17  15 18 52.639   +32 51 56.71  .47183 1.3639 130.9 21.2  932  53
2025 04 30 18  15 18 52.186   +32 51 28.42  .47202 1.3641 130.9 21.2  936  53
2025 04 30 19  15 18 51.732   +32 51 00.07  .47222 1.3643 130.9 21.2  939  52
2025 04 30 20  15 18 51.276   +32 50 31.63  .47242 1.3644 130.9 21.2  942  52
2025 04 30 21  15 18 50.818   +32 50 03.13  .47262 1.3646 130.9 21.2  946  52
2025 04 30 22  15 18 50.359   +32 49 34.55  .47281 1.3648 130.9 21.2  950  52
2025 04 30 23  15 18 49.898   +32 49 05.90  .47301 1.3650 130.9 21.2  953  51
2025 05 01 00  15 18 49.436   +32 48 37.17  .47321 1.3652 130.9 21.2  957  51
2025 05 01 01  15 18 48.973   +32 48 08.37  .47341 1.3654 130.9 21.2  960  51
2025 05 01 02  15 18 48.508   +32 47 39.50  .47361 1.3656 131.0 21.2  964  51
2025 05 01 03  15 18 48.041   +32 47 10.55  .47380 1.3658 131.0 21.2  968  50
2025 05 01 04  15 18 47.573   +32 46 41.53  .47400 1.3660 131.0 21.2  971  50
2025 05 01 05  15 18 47.103   +32 46 12.44  .47420 1.3662 131.0 21.2  975  50
2025 05 01 06  15 18 46.632   +32 45 43.28  .47440 1.3664 131.0 21.2  979  50
2025 05 01 07  15 18 46.160   +32 45 14.04  .47460 1.3666 131.0 21.2  982  49
2025 05 01 08  15 18 45.686   +32 44 44.72  .47480 1.3668 131.0 21.2  986  49
2025 05 01 09  15 18 45.211   +32 44 15.34  .47499 1.3670 131.0 21.2  990  49
2025 05 01 10  15 18 44.734   +32 43 45.88  .47519 1.3672 131.0 21.2  994  49
2025 05 01 11  15 18 44.256   +32 43 16.35  .47539 1.3674 131.0 21.2  998  48
2025 05 01 12  15 18 43.776   +32 42 46.75  .47559 1.3676 131.0 21.2 1002  48
2025 05 01 13  15 18 43.296   +32 42 17.07  .47579 1.3678 131.0 21.2 1006  48
2025 05 01 14  15 18 42.813   +32 41 47.33  .47599 1.3680 131.0 21.2 1010  47
2025 05 01 15  15 18 42.330   +32 41 17.50  .47619 1.3682 131.0 21.2 1014  47
2025 05 01 16  15 18 41.845   +32 40 47.61  .47639 1.3684 131.0 21.2 1018  47
2025 05 01 17  15 18 41.358   +32 40 17.65  .47659 1.3685 131.0 21.2 1022  47
2025 05 01 18  15 18 40.871   +32 39 47.61  .47679 1.3687 131.0 21.2 1026  46
2025 05 01 19  15 18 40.382   +32 39 17.50  .47699 1.3689 131.0 21.2 1030  46
2025 05 01 20  15 18 39.891   +32 38 47.32  .47719 1.3691 131.0 21.2 1034  46
2025 05 01 21  15 18 39.400   +32 38 17.06  .47739 1.3693 131.0 21.2 1038  46
2025 05 01 22  15 18 38.907   +32 37 46.74  .47759 1.3695 131.0 21.2 1042  45
2025 05 01 23  15 18 38.413   +32 37 16.34  .47779 1.3697 131.0 21.2 1047  45
2025 05 02 00  15 18 37.917   +32 36 45.87  .47799 1.3699 131.0 21.2 1051  45
2025 05 02 01  15 18 37.421   +32 36 15.33  .47819 1.3701 131.1 21.2 1055  45
2025 05 02 02  15 18 36.923   +32 35 44.71  .47839 1.3703 131.1 21.2 1060  44
2025 05 02 03  15 18 36.424   +32 35 14.03  .47859 1.3705 131.1 21.2 1064  44
2025 05 02 04  15 18 35.923   +32 34 43.27  .47879 1.3707 131.1 21.2 1068  44
2025 05 02 05  15 18 35.421   +32 34 12.45  .47900 1.3709 131.1 21.2 1073  43
2025 05 02 06  15 18 34.919   +32 33 41.55  .47920 1.3711 131.1 21.2 1077  43
2025 05 02 07  15 18 34.415   +32 33 10.58  .47940 1.3713 131.1 21.2 1082  43
2025 05 02 08  15 18 33.909   +32 32 39.54  .47960 1.3715 131.1 21.2 1086  43
2025 05 02 09  15 18 33.403   +32 32 08.42  .47980 1.3717 131.1 21.2 1091  42
2025 05 02 10  15 18 32.895   +32 31 37.24  .48000 1.3719 131.1 21.2 1095  42
2025 05 02 11  15 18 32.386   +32 31 05.98  .48020 1.3721 131.1 21.2 1100  42
2025 05 02 12  15 18 31.877   +32 30 34.66  .48041 1.3723 131.1 21.2 1105  42
2025 05 02 13  15 18 31.365   +32 30 03.26  .48061 1.3725 131.1 21.2 1109  41